Zurück zum Katalog

STARLINK-5677

AktivKommunikationVLEO
NORAD 55463·PAYLOAD·🇺🇸 United States

Gestartet Feb 2, 2023 von Cape Canaveral Space Force Station

Loading…

Nächste Überflüge (nächste 24 Stunden)

TLE

AktuellSource: CelesTrak SupGP

Epoche: Sep 15, 2026, 02:52 UTC

1 55463C 23015Q   26258.11993056  .00024709  00000+0  10796-2 0  2585
2 55463  42.9994 353.2790 0008473 340.8757  59.3788 15.21268931    16

Verfolge STARLINK-5677 in Echtzeit mit AllMySat

Download on the App Store